Theta_e
300 300 300 300 301 304 299 293 284 298 300 284 283 279 289 293 291 292 290 290 288 286 285 284 284 285 288 295 294 287 290 287 281 283 289 293 291 288 288 282 281 285 284 283
300 300 299 299 301 302 293 288 288 297 297 279 279 287 290 291 289 289 289 287 288 288 285 281 286 286 291 291 288 286 288 281 276 279 284 289 287 290 290 289 288 284 281 284
300 300 299 300 301 302 293 289 281 287 290 285 283 283 285 287 291 289 289 288 288 286 285 287 283 284 289 290 289 295 291 283 280 275 281 286 284 287 289 288 282 283 284 286
299 299 299 300 300 301 293 287 283 288 282 277 282 286 287 285 285 290 290 287 287 285 279 282 282 285 285 288 290 288 286 280 284 284 286 285 284 285 286 285 286 282 285 286
299 299 299 300 300 301 291 282 285 289 285 289 286 286 280 286 288 288 286 285 287 285 281 283 280 283 283 282 286 284 285 276 281 277 283 284 282 284 285 286 286 287 287 286
301 299 299 300 300 300 291 296 292 289 288 286 283 283 286 288 289 289 290 287 285 284 286 287 287 286 286 285 283 282 281 279 276 274 282 281 271 281 284 286 288 287 283 288
301 300 299 300 300 300 292 294 293 285 278 284 285 290 290 289 288 285 289 288 285 289 291 290 288 287 287 286 285 286 281 280 278 273 278 262 279 288 288 286 289 291 291 291
301 301 300 300 301 301 293 295 292 286 278 285 287 289 288 289 289 287 287 290 291 291 287 280 276 277 282 285 287 286 286 282 277 273 274 279 283 287 287 286 285 291 289 291
300 300 300 300 300 300 294 293 295 292 281 281 290 287 288 282 282 284 289 292 291 289 282 275 266 268 278 278 283 289 287 286 280 275 275 269 283 290 293 291 279 290 290 290
301 300 300 300 300 299 294 294 297 291 282 287 288 282 283 289 284 280 284 286 286 288 276 268 269 273 283 276 278 280 279 280 278 279 278 282 289 291 293 280 280 290 292 293
301 301 300 300 299 299 294 292 297 293 287 287 291 291 286 286 285 278 284 281 282 279 273 272 273 276 278 278 282 280 278 274 273 275 269 269 291 289 283 288 290 292 292 293
300 301 300 300 300 299 297 288 297 298 290 287 293 293 294 291 290 286 286 283 285 285 277 277 276 274 275 276 273 283 275 280 277 280 278 287 288 289 294 293 291 292 292 293
300 301 300 300 299 299 297 290 295 294 286 285 286 286 292 295 294 294 281 285 288 285 287 280 278 274 276 272 275 278 282 285 278 280 284 285 287 289 292 293 292 292 291 293
300 300 301 300 300 299 298 291 292 292 286 280 282 294 291 296 295 294 292 289 290 289 287 280 276 277 282 276 279 278 281 283 280 280 284 286 288 290 291 292 293 293 293 292
300 299 299 300 300 299 297 295 294 296 286 280 282 289 291 292 291 292 293 291 289 285 281 276 276 279 280 281 281 279 283 281 278 278 285 285 286 290 292 291 291 292 291 291
299 299 298 299 300 299 294 287 294 296 295 285 275 287 287 290 293 290 290 289 290 288 285 278 279 285 282 278 276 283 285 287 287 284 288 287 289 291 292 290 291 291 290 290
299 299 299 299 299 296 290 286 292 297 294 284 277 279 288 291 291 289 287 289 285 285 282 277 277 279 282 280 277 283 286 287 288 289 288 287 289 288 292 291 291 291 290 289
299 299 299 299 299 297 291 294 299 297 290 288 277 278 281 291 283 283 287 280 285 286 282 278 276 277 278 277 280 284 287 288 289 289 291 290 291 290 289 290 288 286 286 286
299 298 298 295 292 288 290 298 299 297 289 280 279 276 273 289 285 284 286 285 281 284 279 277 280 275 275 279 282 285 287 288 288 290 291 290 289 289 288 287 285 283 284 286
298 294 288 284 289 297 297 290 286 284 284 285 280 284 278 286 283 282 281 282 280 276 280 280 280 278 284 286 287 289 289 290 291 289 286 286 285 286 285 284 284 284 285 285
290 285 284 291 297 290 286 282 280 280 279 282 281 282 280 286 281 281 284 280 279 274 276 277 276 278 283 288 289 290 291 292 291 291 290 289 287 282 280 281 283 285 284 284
289 290 291 289 286 283 280 278 281 279 278 281 279 281 283 283 286 281 282 281 282 276 281 278 274 280 287 288 289 290 290 291 291 292 290 289 287 284 282 281 283 284 285 284
291 287 284 282 281 276 274 272 276 276 280 282 282 280 282 284 284 282 281 278 274 281 273 275 278 284 288 289 288 289 291 291 291 290 289 289 288 286 283 282 283 284 284 284
283 280 276 276 275 276 277 277 278 282 282 283 283 282 282 284 282 282 277 279 279 272 271 275 278 284 288 289 290 289 289 288 289 289 288 286 284 281 280 279 280 279 283 281
281 281 275 276 279 280 280 281 282 285 286 284 283 285 285 283 281 281 280 276 273 276 275 278 282 287 288 287 289 289 287 284 285 287 284 281 281 280 282 282 283 283 282 282
283 281 278 280 278 275 278 280 282 286 286 286 286 284 282 281 281 279 275 277 274 276 278 283 285 286 287 288 290 290 289 288 287 287 285 284 281 281 282 283 284 282 283 278
280 279 281 281 280 278 279 282 283 290 284 281 284 280 279 283 280 278 279 273 278 282 282 284 286 288 289 289 290 288 289 289 288 286 286 285 286 284 284 283 285 285 284 280
Wind_Speed
9 6 6 5 8 11 2 3 3 4 4 5 2 2 4 3 2 4 3 3 4 4 8 5 6 4 9 2 6 6 4 5 6 18 21 11 10 11 12 4 8 5 4 9
10 8 6 6 5 6 3 1 1 3 3 4 0 5 4 2 2 3 3 3 3 5 5 5 5 7 12 8 13 10 7 4 8 14 6 9 8 9 8 5 3 5 4 9
13 10 7 7 5 4 1 3 2 4 5 2 1 1 3 2 5 2 1 3 5 4 5 6 6 11 7 14 14 16 7 5 6 7 11 14 15 14 11 7 3 6 6 21
14 11 9 8 5 3 1 3 4 6 2 3 2 2 1 3 3 5 1 1 4 6 5 9 10 9 17 11 10 6 4 3 6 13 15 16 18 21 16 13 10 8 10 17
14 13 10 10 6 2 0 5 3 2 2 7 7 5 4 4 5 1 2 4 6 6 4 6 14 12 7 6 3 6 8 4 13 14 13 14 19 18 19 17 15 13 12 16
16 14 12 12 9 4 2 3 1 4 3 2 5 5 5 8 1 2 1 5 4 5 10 5 5 7 10 12 13 12 8 4 2 7 6 13 9 10 15 12 12 9 5 4
16 15 14 13 11 10 1 3 1 4 3 3 6 7 10 9 5 5 3 4 4 3 7 7 7 13 17 16 18 12 7 2 2 6 5 4 10 9 13 13 6 10 10 11
16 15 14 13 12 9 2 3 2 3 2 3 7 7 6 5 3 4 6 4 3 3 6 5 8 6 5 6 11 16 17 7 3 2 3 9 11 9 8 4 4 9 10 9
16 15 13 12 12 10 2 3 2 2 4 6 5 3 3 1 1 4 2 4 3 3 2 4 1 3 3 5 7 3 14 13 7 2 5 5 3 19 21 10 3 14 15 16
17 18 16 14 14 11 3 3 1 1 3 5 2 2 4 2 2 3 2 2 3 5 2 1 3 4 4 3 3 5 4 2 11 9 6 5 11 14 17 4 5 14 11 13
17 17 16 16 15 13 5 3 3 2 2 5 5 5 1 3 1 5 3 6 3 1 2 3 5 3 3 4 4 5 2 2 3 2 1 7 9 12 3 7 13 5 11 8
17 18 17 15 15 15 10 2 2 2 2 5 1 6 6 4 3 3 3 6 2 5 2 1 1 2 3 2 5 2 5 4 1 3 5 17 11 10 8 7 3 10 8 10
16 17 18 17 17 17 12 2 2 3 1 5 4 8 13 13 9 6 5 3 5 2 3 3 3 4 3 3 6 3 5 7 3 9 1 16 15 12 9 13 11 14 12 4
16 16 17 17 17 16 15 3 2 3 2 2 6 1 6 5 10 12 9 5 5 2 3 1 3 3 4 4 7 7 6 7 5 12 14 12 11 13 10 14 9 6 7 7
17 17 15 17 18 16 8 4 3 4 4 3 4 10 15 14 7 8 14 11 7 2 1 2 3 3 2 5 7 15 10 16 9 11 13 12 11 10 16 6 5 6 5 6
18 17 16 16 17 17 4 3 6 6 4 1 4 5 5 5 6 9 6 5 6 3 4 4 4 5 1 4 5 9 9 8 9 10 9 15 15 14 3 3 4 4 5 5
19 18 17 17 15 7 4 3 1 10 5 2 3 5 6 6 5 4 3 6 3 4 3 4 3 3 2 3 15 20 12 14 18 19 18 16 14 1 4 4 6 7 8 7
19 18 17 15 15 6 4 3 2 12 4 2 3 5 4 5 3 1 2 2 3 3 4 2 3 2 3 9 8 11 14 14 12 14 13 8 5 3 4 7 8 8 7 8
20 17 15 5 3 4 3 6 9 1 2 4 4 4 5 4 3 3 2 3 3 4 5 4 5 4 10 8 10 11 13 9 7 7 6 4 6 5 7 8 7 5 6 9
23 11 4 4 6 8 16 4 3 3 3 4 3 3 4 4 3 3 4 3 4 3 7 3 6 10 13 13 16 11 10 10 10 5 2 2 2 4 4 5 3 5 6 7
6 5 4 3 19 4 3 5 6 5 5 5 5 9 10 4 4 3 4 3 3 3 6 7 5 6 9 16 17 17 17 13 7 6 5 7 7 5 4 2 3 5 7 7
8 7 6 4 4 4 7 6 6 6 8 8 8 12 13 3 3 4 3 3 4 6 4 4 4 5 9 9 9 7 8 8 6 6 10 8 8 7 5 1 2 4 7 8
4 4 5 5 5 8 10 11 6 6 5 7 6 4 7 5 3 3 4 5 6 2 1 5 6 4 6 5 6 7 8 8 8 9 8 8 7 7 5 2 1 4 3 5
4 7 10 7 8 8 6 5 6 5 6 9 9 5 5 4 4 4 5 6 2 4 4 6 4 7 7 5 6 5 6 8 8 9 8 8 8 5 3 4 5 4 2 3
5 6 8 10 5 5 5 5 3 4 7 5 4 4 3 3 4 4 5 5 6 6 5 4 4 4 6 5 6 7 7 5 5 5 7 7 7 5 5 6 7 6 4 4
5 7 6 4 6 3 2 2 6 3 2 3 4 4 6 6 5 7 8 5 6 6 4 4 3 5 5 8 5 6 6 6 5 5 4 6 6 7 6 6 6 6 6 4
6 4 6 7 6 8 4 4 4 2 4 4 3 6 7 4 4 5 6 5 3 1 2 2 6 5 6 5 7 6 7 7 7 6 6 6 6 6 6 7 7 6 7 5
Wind_Direction
233 243 254 273 315 329 296 260 46 288 12 52 26 143 348 341 284 357 301 276 288 347 352 310 318 291 356 316 314 353 339 271 288 301 289 46 78 59 34 7 352 311 269 262
228 237 238 260 304 352 326 44 116 275 83 126 185 262 255 272 291 342 20 335 0 357 331 310 289 346 340 6 5 357 339 338 325 321 356 7 45 2 8 307 219 279 339 278
228 228 229 237 274 330 58 104 108 332 32 166 186 195 302 290 148 236 279 305 315 309 320 299 304 315 310 342 327 319 297 222 223 259 292 310 315 321 312 253 256 293 270 287
222 226 222 229 254 282 108 66 230 188 194 284 232 317 305 314 284 167 150 269 336 336 320 308 276 316 319 329 318 334 349 292 316 293 307 311 304 302 312 307 290 267 284 288
218 220 215 229 236 256 161 139 144 299 235 144 171 190 229 243 280 244 182 301 320 344 314 283 304 318 329 267 357 13 333 295 325 302 290 282 289 289 287 284 285 276 289 289
216 214 214 225 224 202 245 271 356 95 280 241 149 206 199 220 168 337 238 259 286 298 286 298 290 276 273 263 279 281 259 256 327 270 301 324 316 235 248 268 286 287 293 314
216 207 210 217 222 219 355 270 123 101 259 220 202 218 203 226 239 231 287 322 284 315 353 326 298 271 264 253 249 221 228 250 234 276 312 345 244 292 301 294 0 32 18 4
208 204 203 212 218 226 235 299 0 109 219 253 293 256 242 252 259 256 242 250 110 27 34 352 343 323 346 262 227 218 205 206 276 264 224 268 292 323 18 50 39 19 354 330
203 203 205 208 212 215 221 276 282 107 125 243 245 321 338 148 253 318 328 125 118 86 86 62 201 276 300 292 320 287 183 196 183 172 245 236 27 5 344 309 199 359 346 335
202 202 203 206 202 207 203 272 360 35 153 269 181 170 191 230 99 146 9 26 15 122 108 125 211 254 276 263 288 351 3 170 221 238 266 266 34 1 339 297 294 325 338 324
203 199 199 196 196 202 184 262 229 148 206 285 295 321 321 333 136 144 246 32 307 40 117 153 242 223 281 324 315 329 301 308 276 281 306 274 349 335 305 231 276 316 315 308
205 195 197 195 193 196 186 245 233 156 197 245 353 265 262 242 236 149 186 193 40 199 125 349 15 332 341 345 277 300 270 181 250 261 257 320 348 337 227 243 221 266 258 270
201 197 195 200 195 194 184 200 191 106 6 298 239 247 252 236 219 177 149 247 193 256 140 174 231 227 138 231 245 269 292 325 275 323 323 319 311 298 349 339 328 319 310 349
190 198 192 193 194 193 189 189 222 143 165 253 278 340 266 277 194 199 204 226 324 76 83 145 210 195 188 226 245 251 217 295 257 277 292 298 298 314 313 304 309 360 2 15
186 186 188 193 190 192 182 204 240 199 155 259 293 312 268 245 231 216 203 207 206 209 155 185 239 237 234 240 258 258 244 254 253 265 273 272 287 298 295 317 12 6 16 338
187 187 191 190 189 180 110 202 233 216 139 234 302 291 276 259 191 182 192 178 177 164 170 210 239 229 292 267 258 243 235 230 242 272 293 295 290 286 312 15 15 349 321 309
182 181 184 181 180 169 176 197 194 177 104 157 279 273 253 192 178 179 158 169 150 131 187 226 204 279 270 246 257 263 276 284 280 280 282 285 274 142 318 9 28 25 25 16
175 175 175 174 180 172 225 281 340 124 112 179 229 259 305 165 152 98 113 124 115 174 196 263 163 312 196 249 253 253 263 265 265 259 258 244 96 14 39 69 44 27 4 349
164 161 164 145 173 176 159 172 170 287 173 197 193 199 224 148 144 112 50 120 199 182 209 216 142 219 229 233 238 237 242 235 249 283 288 78 76 44 60 50 35 2 341 346
161 141 151 178 174 156 111 86 196 217 208 213 219 218 265 133 141 172 144 179 219 224 212 138 204 247 245 239 242 246 251 258 270 251 172 134 110 91 75 61 7 355 345 331
162 157 159 159 151 103 142 192 193 190 213 199 183 203 226 221 146 197 180 208 219 228 238 175 212 252 224 239 240 241 243 251 170 146 135 123 130 138 119 64 358 350 329 328
148 114 87 93 138 173 193 195 197 209 200 171 183 214 202 215 158 158 186 198 240 244 215 171 242 237 239 247 227 166 159 143 145 123 118 117 122 131 132 174 47 337 331 335
116 105 159 160 166 188 204 188 193 180 181 161 175 165 150 190 160 169 166 223 229 244 213 231 226 239 256 238 145 158 147 141 123 115 115 124 141 138 142 170 278 286 335 337
163 167 165 199 172 224 197 178 159 193 165 164 179 154 150 146 170 174 192 221 175 239 229 229 240 236 241 141 112 108 149 154 155 152 149 142 140 153 173 222 230 230 199 252
172 178 198 193 208 205 192 194 180 197 173 164 142 144 134 165 187 198 190 187 225 212 226 231 263 218 126 116 122 122 115 125 129 133 149 153 167 176 221 247 240 235 223 207
186 190 183 173 174 226 310 177 190 214 172 124 101 162 204 178 186 189 199 203 197 227 190 193 94 76 57 46 58 127 145 164 180 191 184 179 175 190 220 255 258 246 189 209
189 191 202 168 176 186 189 180 201 175 118 171 168 214 205 131 200 198 186 189 210 247 252 154 155 153 158 150 147 176 169 177 189 192 199 185 187 194 215 240 252 216 181 175